VXP622 KILM-KHVN

Flight info

Callsign VXP622
Flight time 1h 36m
Altitude 37000
Route KILM WALLO YEASO Q97 KALDA SARDI1 KHVN
Aircraft B738/M-SDE2E3FGIRW/LB1

Departure

Time 2026-05-05 01:43
Airport Wilmington International Airport (KILM)

Arrival

Time 2026-05-05 03:19
Airport Tweed New Haven Airport (KHVN)
Time Latitude Longitude Altitude Speed Heading
2026-05-05 01:22 34.26605 -77.90961 40 ft 0 kts 50°
2026-05-05 01:31 34.26609 -77.90957 38 ft 1 kts 37°
2026-05-05 01:31 34.26617 -77.90956 38 ft 1 kts
2026-05-05 01:32 34.26621 -77.90973 39 ft 3 kts 246°
2026-05-05 01:32 34.26590 -77.90998 40 ft 4 kts 175°
2026-05-05 01:32 34.26584 -77.90993 40 ft 0 kts 141°
2026-05-05 01:36 34.26577 -77.90986 40 ft 4 kts 141°
2026-05-05 01:37 34.26559 -77.90968 40 ft 7 kts 141°
2026-05-05 01:37 34.26532 -77.90925 38 ft 6 kts 99°
2026-05-05 01:37 34.26543 -77.90858 40 ft 11 kts 60°
2026-05-05 01:37 34.26604 -77.90774 39 ft 16 kts 47°
2026-05-05 01:38 34.26692 -77.90658 40 ft 21 kts 48°
2026-05-05 01:38 34.26793 -77.90541 38 ft 21 kts 17°
2026-05-05 01:38 34.26928 -77.90582 40 ft 21 kts 339°
2026-05-05 01:38 34.27077 -77.90654 40 ft 25 kts 332°
2026-05-05 01:39 34.27219 -77.90759 40 ft 19 kts 333°
2026-05-05 01:39 34.27350 -77.90844 40 ft 23 kts 330°
2026-05-05 01:39 34.27504 -77.90923 40 ft 26 kts 348°
2026-05-05 01:39 34.27669 -77.90962 40 ft 22 kts 349°
2026-05-05 01:40 34.27828 -77.90999 40 ft 23 kts 349°
2026-05-05 01:40 34.27967 -77.91032 38 ft 18 kts 349°
2026-05-05 01:40 34.28105 -77.91062 40 ft 21 kts 349°
2026-05-05 01:40 34.28192 -77.91090 40 ft 1 kts 340°
2026-05-05 01:41 34.28220 -77.91102 40 ft 7 kts 340°
2026-05-05 01:41 34.28271 -77.91087 41 ft 9 kts 47°
2026-05-05 01:41 34.28296 -77.91014 42 ft 9 kts 72°
2026-05-05 01:41 34.28291 -77.90989 43 ft 0 kts 154°
2026-05-05 01:42 34.28279 -77.90984 43 ft 18 kts 158°
2026-05-05 01:42 34.27890 -77.90807 39 ft 100 kts 159°
2026-05-05 01:42 34.27003 -77.90407 41 ft 167 kts 161°
2026-05-05 01:43 34.25814 -77.89878 588 ft 188 kts 161°
2026-05-05 01:43 34.24588 -77.89256 1503 ft 193 kts 159°
2026-05-05 01:43 34.23338 -77.88581 2243 ft 204 kts 159°
2026-05-05 01:43 34.22054 -77.87717 2952 ft 215 kts 144°
2026-05-05 01:44 34.21112 -77.86276 3713 ft 230 kts 116°
2026-05-05 01:44 34.20760 -77.84275 3916 ft 269 kts 91°
2026-05-05 01:44 34.21171 -77.81989 4550 ft 277 kts 59°
2026-05-05 01:44 34.22423 -77.80337 5777 ft 271 kts 32°
2026-05-05 01:45 34.24194 -77.79441 6355 ft 287 kts
2026-05-05 01:45 34.26201 -77.79595 7205 ft 287 kts 344°
2026-05-05 01:45 34.28093 -77.80285 8431 ft 284 kts 341°
2026-05-05 01:45 34.29994 -77.81057 9219 ft 295 kts 340°
2026-05-05 01:46 34.31999 -77.81886 9814 ft 311 kts 340°
2026-05-05 01:46 34.34108 -77.82789 10038 ft 339 kts 340°
2026-05-05 01:46 34.36454 -77.83714 10038 ft 363 kts 342°
2026-05-05 01:46 34.38926 -77.84558 10015 ft 372 kts 345°
2026-05-05 01:47 34.41457 -77.85308 10009 ft 374 kts 346°
2026-05-05 01:47 34.43991 -77.85982 10003 ft 374 kts 347°
2026-05-05 01:47 34.46552 -77.86618 10000 ft 374 kts 348°
2026-05-05 01:47 34.49111 -77.87228 10004 ft 374 kts 348°
2026-05-05 01:48 34.51665 -77.87826 10007 ft 374 kts 348°
2026-05-05 01:48 34.54213 -77.88420 10261 ft 377 kts 348°
2026-05-05 01:48 34.56809 -77.89024 11069 ft 381 kts 348°
2026-05-05 01:48 34.59411 -77.89630 12027 ft 381 kts 348°
2026-05-05 01:49 34.62035 -77.90242 12860 ft 384 kts 348°
2026-05-05 01:49 34.64676 -77.90859 13604 ft 389 kts 347°
2026-05-05 01:49 34.67349 -77.91484 14288 ft 393 kts 347°
2026-05-05 01:49 34.70063 -77.92118 14897 ft 398 kts 347°
2026-05-05 01:50 34.72803 -77.92762 15468 ft 403 kts 347°
2026-05-05 01:50 34.75572 -77.93412 16063 ft 407 kts 347°
2026-05-05 01:50 34.78370 -77.94068 16653 ft 412 kts 347°
2026-05-05 01:50 34.81193 -77.94731 17197 ft 416 kts 347°
2026-05-05 01:51 34.84053 -77.95403 17743 ft 420 kts 346°
2026-05-05 01:51 34.86963 -77.95876 18182 ft 429 kts 358°
2026-05-05 01:51 34.89935 -77.95216 18635 ft 440 kts 16°
2026-05-05 01:51 34.92786 -77.93845 19223 ft 441 kts 20°
2026-05-05 01:52 34.95630 -77.92378 19644 ft 445 kts 20°
2026-05-05 01:52 34.98495 -77.90880 20026 ft 449 kts 20°
2026-05-05 01:52 35.01336 -77.89401 20445 ft 452 kts 20°
2026-05-05 01:52 35.04280 -77.87882 20887 ft 454 kts 20°
2026-05-05 01:53 35.07197 -77.86391 21303 ft 456 kts 19°
2026-05-05 01:53 35.10098 -77.84917 21684 ft 458 kts 19°
2026-05-05 01:53 35.13090 -77.83400 22058 ft 461 kts 19°
2026-05-05 01:53 35.16060 -77.81896 22388 ft 464 kts 19°
2026-05-05 01:54 35.19051 -77.80381 22740 ft 467 kts 19°
2026-05-05 01:54 35.22059 -77.78855 23093 ft 469 kts 20°
2026-05-05 01:54 35.25035 -77.77343 23431 ft 471 kts 20°
2026-05-05 01:54 35.28064 -77.75803 23747 ft 473 kts 20°
2026-05-05 01:55 35.31112 -77.74252 24002 ft 475 kts 19°
2026-05-05 01:55 35.34170 -77.72694 24275 ft 477 kts 19°
2026-05-05 01:55 35.37243 -77.71127 24530 ft 478 kts 19°
2026-05-05 01:55 35.40319 -77.69557 24782 ft 480 kts 19°
2026-05-05 01:56 35.43414 -77.67977 25022 ft 482 kts 19°
2026-05-05 01:56 35.46513 -77.66392 25270 ft 484 kts 19°
2026-05-05 01:56 35.49637 -77.64794 25501 ft 486 kts 19°
2026-05-05 01:56 35.52754 -77.63199 25718 ft 487 kts 19°
2026-05-05 01:57 35.55859 -77.61498 25883 ft 492 kts 25°
2026-05-05 01:57 35.58707 -77.59101 26058 ft 498 kts 35°
2026-05-05 01:57 35.61408 -77.56422 26310 ft 499 kts 36°
2026-05-05 01:57 35.64086 -77.53709 26495 ft 500 kts 36°
2026-05-05 01:58 35.66788 -77.50995 26685 ft 500 kts 36°
2026-05-05 01:58 35.69507 -77.48314 26918 ft 500 kts 35°
2026-05-05 01:58 35.72226 -77.45673 27176 ft 498 kts 34°
2026-05-05 01:58 35.74957 -77.43044 27402 ft 498 kts 34°
2026-05-05 01:59 35.77687 -77.40425 27621 ft 498 kts 34°
2026-05-05 01:59 35.80422 -77.37798 27845 ft 497 kts 34°
2026-05-05 01:59 35.83147 -77.35175 28093 ft 497 kts 34°
2026-05-05 01:59 35.85872 -77.32547 28282 ft 498 kts 34°
2026-05-05 02:00 35.88595 -77.29917 28450 ft 498 kts 34°
2026-05-05 02:00 35.91330 -77.27272 28681 ft 498 kts 34°
2026-05-05 02:00 35.94026 -77.24696 28925 ft 496 kts 32°
2026-05-05 02:00 35.96811 -77.22210 29149 ft 494 kts 31°
2026-05-05 02:01 35.99649 -77.19781 29332 ft 494 kts 30°
2026-05-05 02:01 36.02485 -77.17382 29523 ft 494 kts 30°
2026-05-05 02:01 36.05320 -77.14977 29749 ft 494 kts 30°
2026-05-05 02:01 36.08150 -77.12555 29856 ft 497 kts 31°
2026-05-05 02:02 36.13837 -77.07635 30094 ft 499 kts 31°
2026-05-05 02:02 36.16665 -77.05171 30335 ft 497 kts 31°
2026-05-05 02:02 36.19492 -77.02705 30538 ft 496 kts 31°
2026-05-05 02:03 36.22319 -77.00238 30669 ft 497 kts 31°
2026-05-05 02:03 36.25141 -76.97775 30792 ft 498 kts 31°
2026-05-05 02:03 36.27977 -76.95299 30968 ft 497 kts 31°
2026-05-05 02:03 36.30806 -76.92826 31136 ft 497 kts 31°
2026-05-05 02:04 36.33632 -76.90355 31280 ft 497 kts 31°
2026-05-05 02:04 36.36453 -76.87886 31418 ft 497 kts 31°
2026-05-05 02:04 36.39289 -76.85417 31562 ft 497 kts 30°
2026-05-05 02:04 36.42128 -76.82973 31716 ft 496 kts 30°
2026-05-05 02:05 36.44968 -76.80541 31862 ft 496 kts 30°
2026-05-05 02:05 36.47782 -76.78134 32009 ft 496 kts 30°
2026-05-05 02:05 36.50623 -76.75701 32176 ft 496 kts 30°
2026-05-05 02:05 36.53452 -76.73271 32429 ft 493 kts 30°
2026-05-05 02:06 36.56264 -76.70850 32644 ft 492 kts 30°
2026-05-05 02:06 36.59090 -76.68414 32743 ft 493 kts 30°
2026-05-05 02:06 36.64693 -76.63577 32953 ft 494 kts 30°
2026-05-05 02:07 36.67520 -76.61132 33117 ft 493 kts 30°
2026-05-05 02:07 36.69385 -76.59517 33207 ft 493 kts 30°
2026-05-05 02:07 36.72205 -76.57074 33379 ft 492 kts 31°
2026-05-05 02:07 36.74983 -76.54662 33923 ft 483 kts 31°
2026-05-05 02:08 36.77732 -76.52275 34085 ft 483 kts 31°
2026-05-05 02:08 36.80498 -76.49874 34096 ft 486 kts 30°
2026-05-05 02:08 36.86089 -76.45018 34134 ft 491 kts 30°
2026-05-05 02:09 36.91711 -76.40121 34236 ft 493 kts 30°
2026-05-05 02:09 36.94513 -76.37674 34507 ft 487 kts 31°
2026-05-05 02:09 36.97255 -76.35274 34969 ft 479 kts 31°
2026-05-05 02:10 37.02732 -76.30485 35045 ft 483 kts 31°
2026-05-05 02:10 37.08263 -76.25645 35082 ft 486 kts 31°
2026-05-05 02:11 37.13789 -76.20796 35309 ft 484 kts 31°
2026-05-05 02:11 37.16546 -76.18372 35485 ft 482 kts 32°
2026-05-05 02:11 37.19273 -76.15971 35703 ft 479 kts 31°
2026-05-05 02:12 37.27486 -76.08738 35788 ft 484 kts 31°
2026-05-05 02:13 37.33008 -76.03861 35863 ft 485 kts 31°
2026-05-05 02:13 37.35776 -76.01413 35973 ft 485 kts 31°
2026-05-05 02:13 37.38488 -75.99009 36145 ft 481 kts 31°
2026-05-05 02:13 37.41214 -75.96592 36329 ft 479 kts 31°
2026-05-05 02:14 37.43943 -75.94173 36363 ft 480 kts 31°
2026-05-05 02:14 37.49418 -75.89312 36423 ft 482 kts 31°
2026-05-05 02:15 37.54912 -75.84508 36569 ft 480 kts 28°
2026-05-05 02:15 37.60632 -75.80209 36662 ft 479 kts 26°
2026-05-05 02:16 37.66403 -75.76012 36818 ft 478 kts 26°
2026-05-05 02:16 37.72127 -75.71749 37010 ft 477 kts 26°
2026-05-05 02:17 37.77842 -75.67444 37022 ft 479 kts 27°
2026-05-05 02:17 37.83578 -75.63118 37015 ft 480 kts 27°
2026-05-05 02:18 37.89190 -75.58470 37017 ft 481 kts 31°
2026-05-05 02:18 37.94658 -75.53590 37018 ft 481 kts 31°
2026-05-05 02:19 38.00152 -75.48757 37008 ft 480 kts 31°
2026-05-05 02:19 38.05632 -75.44008 36984 ft 479 kts 28°
2026-05-05 02:20 38.11545 -75.40181 36992 ft 475 kts 20°
2026-05-05 02:20 38.17603 -75.36853 36992 ft 474 kts 19°
2026-05-05 02:21 38.23641 -75.33428 36998 ft 475 kts 21°
2026-05-05 02:21 38.29648 -75.29889 37005 ft 476 kts 21°
2026-05-05 02:22 38.35641 -75.26316 37005 ft 476 kts 21°
2026-05-05 02:22 38.41639 -75.22737 37025 ft 475 kts 22°
2026-05-05 02:23 38.47596 -75.19183 37006 ft 475 kts 22°
2026-05-05 02:23 38.53591 -75.15599 37001 ft 475 kts 22°
2026-05-05 02:24 38.59576 -75.12015 36994 ft 475 kts 22°
2026-05-05 02:24 38.65518 -75.08310 36953 ft 478 kts 30°
2026-05-05 02:24 38.68177 -75.05755 37054 ft 478 kts 37°
2026-05-05 02:25 38.70723 -75.02988 36960 ft 481 kts 38°
2026-05-05 02:25 38.75763 -74.97344 36983 ft 480 kts 38°
2026-05-05 02:26 38.80835 -74.91791 36956 ft 479 kts 37°
2026-05-05 02:26 38.83365 -74.89064 36820 ft 470 kts 37°
2026-05-05 02:26 38.85850 -74.86398 36487 ft 463 kts 37°
2026-05-05 02:26 38.88328 -74.83745 35874 ft 464 kts 37°
2026-05-05 02:27 38.90819 -74.81077 35193 ft 467 kts 37°
2026-05-05 02:27 38.93290 -74.78426 34577 ft 469 kts 37°
2026-05-05 02:27 38.95786 -74.75742 34146 ft 466 kts 37°
2026-05-05 02:27 38.98247 -74.73090 33812 ft 459 kts 37°
2026-05-05 02:28 39.00683 -74.70460 33414 ft 454 kts 37°
2026-05-05 02:28 39.03095 -74.67857 32930 ft 452 kts 38°
2026-05-05 02:28 39.05493 -74.65266 32502 ft 448 kts 38°
2026-05-05 02:28 39.07875 -74.62690 32038 ft 445 kts 38°
2026-05-05 02:29 39.10247 -74.60125 30983 ft 456 kts 38°
2026-05-05 02:29 39.12732 -74.57437 30109 ft 464 kts 38°
2026-05-05 02:29 39.15165 -74.54798 29571 ft 460 kts 38°
2026-05-05 02:29 39.17610 -74.52138 28663 ft 463 kts 38°
2026-05-05 02:30 39.20087 -74.49440 27576 ft 470 kts 38°
2026-05-05 02:30 39.22599 -74.46699 26662 ft 474 kts 38°
2026-05-05 02:30 39.25118 -74.43949 26009 ft 471 kts 38°
2026-05-05 02:30 39.27598 -74.41239 25476 ft 466 kts 38°
2026-05-05 02:31 39.30060 -74.38540 24931 ft 461 kts 38°
2026-05-05 02:31 39.32493 -74.35860 24334 ft 459 kts 38°
2026-05-05 02:31 39.34912 -74.33191 23749 ft 456 kts 38°
2026-05-05 02:31 39.37322 -74.30529 23106 ft 453 kts 38°
2026-05-05 02:32 39.39708 -74.27892 22485 ft 450 kts 38°
2026-05-05 02:32 39.42077 -74.25271 21902 ft 446 kts 38°
2026-05-05 02:32 39.44430 -74.22666 21313 ft 442 kts 38°
2026-05-05 02:32 39.46759 -74.20087 21039 ft 442 kts 38°
2026-05-05 02:33 39.49106 -74.17487 21100 ft 444 kts 38°
2026-05-05 02:33 39.51424 -74.14916 20955 ft 444 kts 38°
2026-05-05 02:33 39.53692 -74.12151 20978 ft 443 kts 46°
2026-05-05 02:33 39.55635 -74.09099 21016 ft 446 kts 50°
2026-05-05 02:34 39.57534 -74.05904 20991 ft 447 kts 50°
2026-05-05 02:34 39.59461 -74.02760 20995 ft 445 kts 49°
2026-05-05 02:34 39.61416 -73.99665 20993 ft 444 kts 48°
2026-05-05 02:34 39.63387 -73.96578 20981 ft 443 kts 47°
2026-05-05 02:35 39.65351 -73.93504 20999 ft 442 kts 47°
2026-05-05 02:35 39.67317 -73.90421 21005 ft 443 kts 48°
2026-05-05 02:35 39.69282 -73.87333 20991 ft 444 kts 48°
2026-05-05 02:35 39.71250 -73.84234 20990 ft 444 kts 48°
2026-05-05 02:36 39.73214 -73.81134 21001 ft 445 kts 48°
2026-05-05 02:36 39.75180 -73.78029 21014 ft 445 kts 48°
2026-05-05 02:36 39.77150 -73.74914 21017 ft 444 kts 48°
2026-05-05 02:36 39.79083 -73.71854 20773 ft 434 kts 48°
2026-05-05 02:37 39.80996 -73.68823 20388 ft 428 kts 48°
2026-05-05 02:37 39.82878 -73.65841 19666 ft 430 kts 48°
2026-05-05 02:37 39.84792 -73.62806 18795 ft 437 kts 48°
2026-05-05 02:37 39.86715 -73.59752 18297 ft 433 kts 48°
2026-05-05 02:38 39.88608 -73.56740 17838 ft 427 kts 48°
2026-05-05 02:38 39.90495 -73.53770 17276 ft 423 kts 45°
2026-05-05 02:38 39.92557 -73.51062 16622 ft 420 kts 39°
2026-05-05 02:38 39.94731 -73.48548 16113 ft 416 kts 38°
2026-05-05 02:39 39.96914 -73.46094 15610 ft 412 kts 38°
2026-05-05 02:39 39.99074 -73.43643 15066 ft 410 kts 38°
2026-05-05 02:39 40.01208 -73.41176 14533 ft 408 kts 39°
2026-05-05 02:39 40.03285 -73.38737 14045 ft 406 kts 39°
2026-05-05 02:40 40.05371 -73.36266 13535 ft 403 kts 39°
2026-05-05 02:40 40.07437 -73.33810 13025 ft 400 kts 39°
2026-05-05 02:40 40.09488 -73.31370 12531 ft 396 kts 39°
2026-05-05 02:40 40.11518 -73.28956 12086 ft 393 kts 39°
2026-05-05 02:41 40.13504 -73.26589 12102 ft 380 kts 39°
2026-05-05 02:41 40.15469 -73.24247 12076 ft 388 kts 39°
2026-05-05 02:41 40.17479 -73.21853 12048 ft 392 kts 39°
2026-05-05 02:41 40.19502 -73.19438 12056 ft 394 kts 39°
2026-05-05 02:42 40.21524 -73.17021 12031 ft 393 kts 39°
2026-05-05 02:42 40.23541 -73.14607 12043 ft 392 kts 39°
2026-05-05 02:42 40.25554 -73.12198 12032 ft 392 kts 39°
2026-05-05 02:42 40.27566 -73.09789 12035 ft 391 kts 39°
2026-05-05 02:43 40.29574 -73.07384 12041 ft 391 kts 39°
2026-05-05 02:43 40.31578 -73.04982 12056 ft 391 kts 39°
2026-05-05 02:43 40.33588 -73.02572 12043 ft 392 kts 39°
2026-05-05 02:43 40.35599 -73.00156 12034 ft 393 kts 39°
2026-05-05 02:44 40.37619 -72.97729 12030 ft 393 kts 39°
2026-05-05 02:44 40.39635 -72.95303 12030 ft 393 kts 39°
2026-05-05 02:44 40.41651 -72.92875 12036 ft 393 kts 39°
2026-05-05 02:44 40.43664 -72.90448 12034 ft 393 kts 39°
2026-05-05 02:45 40.45653 -72.88049 12035 ft 391 kts 39°
2026-05-05 02:45 40.47640 -72.85647 12006 ft 377 kts 39°
2026-05-05 02:45 40.49527 -72.83363 12033 ft 361 kts 39°
2026-05-05 02:45 40.51315 -72.81200 12017 ft 347 kts 39°
2026-05-05 02:46 40.53076 -72.79068 12005 ft 333 kts 39°
2026-05-05 02:46 40.54742 -72.77050 12037 ft 319 kts 39°
2026-05-05 02:46 40.56350 -72.75101 12013 ft 312 kts 39°
2026-05-05 02:46 40.57931 -72.73184 11942 ft 307 kts 38°
2026-05-05 02:47 40.59479 -72.71306 11708 ft 304 kts 39°
2026-05-05 02:47 40.61171 -72.69682 11218 ft 302 kts 17°
2026-05-05 02:47 40.63191 -72.69138 10914 ft 292 kts 360°
2026-05-05 02:47 40.65224 -72.69060 10694 ft 286 kts 355°
2026-05-05 02:48 40.67195 -72.69084 10347 ft 288 kts 355°
2026-05-05 02:48 40.69205 -72.69125 10038 ft 288 kts 355°
2026-05-05 02:48 40.71203 -72.69158 9788 ft 286 kts 356°
2026-05-05 02:48 40.73186 -72.69180 9459 ft 285 kts 356°
2026-05-05 02:49 40.75172 -72.69194 9138 ft 285 kts 355°
2026-05-05 02:49 40.77148 -72.69203 8828 ft 284 kts 356°
2026-05-05 02:49 40.79124 -72.69209 8530 ft 284 kts 356°
2026-05-05 02:49 40.81101 -72.69212 8224 ft 283 kts 355°
2026-05-05 02:50 40.83056 -72.69215 8050 ft 280 kts 356°
2026-05-05 02:50 40.84996 -72.69216 8056 ft 277 kts 356°
2026-05-05 02:50 40.86926 -72.69217 7862 ft 278 kts 355°
2026-05-05 02:50 40.88818 -72.69215 7854 ft 266 kts 356°
2026-05-05 02:51 40.90641 -72.69214 7763 ft 258 kts 356°
2026-05-05 02:51 40.91816 -72.69214 7732 ft 251 kts 355°
2026-05-05 02:51 40.93541 -72.69214 7643 ft 243 kts 356°
2026-05-05 02:51 40.95200 -72.69213 7532 ft 235 kts 355°
2026-05-05 02:52 40.96832 -72.69214 7273 ft 235 kts 355°
2026-05-05 02:52 40.98473 -72.69216 7013 ft 235 kts 355°
2026-05-05 02:52 41.00101 -72.69216 6763 ft 233 kts 355°
2026-05-05 02:52 41.01653 -72.69583 6405 ft 224 kts 326°
2026-05-05 02:53 41.02854 -72.70851 6177 ft 221 kts 314°
2026-05-05 02:53 41.04031 -72.72217 6085 ft 226 kts 314°
2026-05-05 02:53 41.05206 -72.73571 6029 ft 221 kts 314°
2026-05-05 02:53 41.06357 -72.74897 6008 ft 219 kts 314°
2026-05-05 02:54 41.07511 -72.76230 6010 ft 221 kts 315°
2026-05-05 02:54 41.08854 -72.77255 5976 ft 230 kts 343°
2026-05-05 02:54 41.10465 -72.77223 6034 ft 236 kts
2026-05-05 02:54 41.12086 -72.76789 6008 ft 239 kts
2026-05-05 02:55 41.13717 -72.76359 6014 ft 239 kts
2026-05-05 02:55 41.15338 -72.75930 6003 ft 241 kts
2026-05-05 02:55 41.17003 -72.75487 6004 ft 241 kts
2026-05-05 02:55 41.18616 -72.75054 5996 ft 235 kts
2026-05-05 02:56 41.20188 -72.74626 5995 ft 226 kts
2026-05-05 02:56 41.21716 -72.74203 5989 ft 225 kts
2026-05-05 02:56 41.23256 -72.74024 5970 ft 220 kts 347°
2026-05-05 02:56 41.24758 -72.74317 6024 ft 219 kts 346°
2026-05-05 02:57 41.26265 -72.74596 6015 ft 215 kts 347°
2026-05-05 02:57 41.27728 -72.74853 6000 ft 209 kts 347°
2026-05-05 02:57 41.29162 -72.75101 5994 ft 208 kts 347°
2026-05-05 02:57 41.30600 -72.75349 6009 ft 208 kts 346°
2026-05-05 02:58 41.32042 -72.75589 6009 ft 209 kts 347°
2026-05-05 02:58 41.33491 -72.75825 6002 ft 210 kts 347°
2026-05-05 02:58 41.34938 -72.76061 6006 ft 209 kts 347°
2026-05-05 02:58 41.36351 -72.76288 5980 ft 200 kts 347°
2026-05-05 02:59 41.37713 -72.76494 5993 ft 198 kts 347°
2026-05-05 02:59 41.39134 -72.76752 6017 ft 210 kts 340°
2026-05-05 02:59 41.40394 -72.77690 6036 ft 211 kts 315°
2026-05-05 02:59 41.41579 -72.78947 5995 ft 220 kts 316°
2026-05-05 03:00 41.42778 -72.80193 5995 ft 217 kts 317°
2026-05-05 03:00 41.43962 -72.81418 5998 ft 216 kts 317°
2026-05-05 03:00 41.45148 -72.82645 5990 ft 216 kts 317°
2026-05-05 03:00 41.46330 -72.83866 5999 ft 214 kts 317°
2026-05-05 03:01 41.47514 -72.85089 5978 ft 214 kts 317°
2026-05-05 03:01 41.48685 -72.86304 5998 ft 212 kts 317°
2026-05-05 03:01 41.49852 -72.87511 5984 ft 213 kts 317°
2026-05-05 03:01 41.51022 -72.88720 5997 ft 213 kts 317°
2026-05-05 03:02 41.52185 -72.89921 5795 ft 211 kts 317°
2026-05-05 03:02 41.53350 -72.91117 5384 ft 211 kts 316°
2026-05-05 03:02 41.54533 -72.92316 4887 ft 216 kts 316°
2026-05-05 03:02 41.55722 -72.93497 4462 ft 215 kts 316°
2026-05-05 03:03 41.56924 -72.94676 4002 ft 213 kts 316°
2026-05-05 03:03 41.58126 -72.95841 3550 ft 216 kts 317°
2026-05-05 03:03 41.59352 -72.97011 3129 ft 217 kts 316°
2026-05-05 03:03 41.60577 -72.98167 2995 ft 214 kts 316°
2026-05-05 03:04 41.61820 -72.99331 2979 ft 217 kts 316°
2026-05-05 03:04 41.63054 -73.00470 2993 ft 218 kts 316°
2026-05-05 03:04 41.64310 -73.01619 2961 ft 219 kts 317°
2026-05-05 03:04 41.65561 -73.02764 2981 ft 219 kts 317°
2026-05-05 03:05 41.66815 -73.03925 2985 ft 220 kts 317°
2026-05-05 03:05 41.68074 -73.05101 2969 ft 220 kts 317°
2026-05-05 03:05 41.69324 -73.06266 2985 ft 220 kts 317°
2026-05-05 03:05 41.70583 -73.07443 2950 ft 218 kts 317°
2026-05-05 03:06 41.71780 -73.08596 2946 ft 208 kts 314°
2026-05-05 03:06 41.72999 -73.09774 3012 ft 223 kts 317°
2026-05-05 03:06 41.74263 -73.10958 2975 ft 220 kts 316°
2026-05-05 03:06 41.75255 -73.12376 2928 ft 198 kts 284°
2026-05-05 03:07 41.75218 -73.14044 2639 ft 178 kts 233°
2026-05-05 03:07 41.74337 -73.15233 2691 ft 184 kts 223°
2026-05-05 03:07 41.73222 -73.16138 2615 ft 191 kts 200°
2026-05-05 03:07 41.71904 -73.16237 2576 ft 193 kts 176°
2026-05-05 03:08 41.70694 -73.15476 2577 ft 191 kts 152°
2026-05-05 03:08 41.69676 -73.14413 2536 ft 181 kts 154°
2026-05-05 03:08 41.68644 -73.13428 2574 ft 185 kts 152°
2026-05-05 03:08 41.67636 -73.12354 2596 ft 183 kts 152°
2026-05-05 03:09 41.66640 -73.11291 2573 ft 183 kts 152°
2026-05-05 03:09 41.65660 -73.10257 2573 ft 180 kts 152°
2026-05-05 03:09 41.64693 -73.09229 2594 ft 175 kts 152°
2026-05-05 03:09 41.63746 -73.08228 2547 ft 177 kts 151°
2026-05-05 03:10 41.62732 -73.07166 2619 ft 187 kts 150°
2026-05-05 03:10 41.61697 -73.06077 2590 ft 189 kts 149°
2026-05-05 03:10 41.60798 -73.04747 2569 ft 200 kts 130°
2026-05-05 03:10 41.59831 -73.03603 2586 ft 178 kts 167°
2026-05-05 03:11 41.58691 -73.02972 2580 ft 184 kts 158°
2026-05-05 03:11 41.57652 -73.01935 2571 ft 188 kts 148°
2026-05-05 03:11 41.56778 -73.00662 2541 ft 193 kts 122°
2026-05-05 03:11 41.56051 -72.99206 2502 ft 183 kts 169°
2026-05-05 03:12 41.54919 -72.99340 2576 ft 164 kts 203°
2026-05-05 03:12 41.53784 -72.99476 2560 ft 175 kts 169°
2026-05-05 03:12 41.52838 -72.98345 2611 ft 192 kts 135°
2026-05-05 03:12 41.52024 -72.96930 2588 ft 192 kts 141°
2026-05-05 03:13 41.51131 -72.95627 2593 ft 189 kts 144°
2026-05-05 03:13 41.50199 -72.94414 2567 ft 185 kts 145°
2026-05-05 03:13 41.49228 -72.93236 2572 ft 190 kts 149°
2026-05-05 03:13 41.48205 -72.92117 2585 ft 189 kts 150°
2026-05-05 03:14 41.47187 -72.91032 2577 ft 186 kts 151°
2026-05-05 03:14 41.46180 -72.89972 2586 ft 184 kts 151°
2026-05-05 03:14 41.45168 -72.88917 2582 ft 185 kts 152°
2026-05-05 03:14 41.44156 -72.87899 2563 ft 174 kts 161°
2026-05-05 03:15 41.43112 -72.87681 2611 ft 147 kts 192°
2026-05-05 03:15 41.42077 -72.87753 2558 ft 146 kts 190°
2026-05-05 03:15 41.41088 -72.87804 2231 ft 140 kts 190°
2026-05-05 03:15 41.40123 -72.87861 1812 ft 139 kts 190°
2026-05-05 03:16 41.39163 -72.87921 1745 ft 138 kts 191°
2026-05-05 03:16 41.38206 -72.87982 1705 ft 137 kts 191°
2026-05-05 03:16 41.37260 -72.88044 1661 ft 136 kts 191°
2026-05-05 03:16 41.36302 -72.88109 1626 ft 138 kts 190°
2026-05-05 03:17 41.35374 -72.88169 1624 ft 128 kts 190°
2026-05-05 03:17 41.34523 -72.88223 1531 ft 117 kts 191°
2026-05-05 03:17 41.33724 -72.88275 1339 ft 113 kts 191°
2026-05-05 03:17 41.32933 -72.88339 896 ft 121 kts 187°
2026-05-05 03:18 41.31990 -72.88395 789 ft 149 kts 185°
2026-05-05 03:18 41.30906 -72.88416 841 ft 167 kts 186°
2026-05-05 03:18 41.29809 -72.88526 731 ft 149 kts 186°
2026-05-05 03:18 41.28808 -72.88609 513 ft 138 kts 183°
2026-05-05 03:19 41.26904 -72.88731 22 ft 127 kts 182°
2026-05-05 03:19 41.26323 -72.88772 14 ft 42 kts 185°
2026-05-05 03:19 41.26039 -72.88802 18 ft 44 kts 184°
2026-05-05 03:20 41.25839 -72.88793 17 ft 14 kts 126°
2026-05-05 03:20 41.25857 -72.88712 18 ft 6 kts 25°
2026-05-05 03:20 41.25948 -72.88684 15 ft 21 kts 11°
2026-05-05 03:20 41.26065 -72.88654 17 ft 20 kts 11°
2026-05-05 03:21 41.26226 -72.88617 16 ft 15 kts
2026-05-05 03:21 41.26276 -72.88602 15 ft 14 kts 24°
2026-05-05 03:21 41.26393 -72.88494 16 ft 25 kts 37°
2026-05-05 03:21 41.26480 -72.88499 15 ft 18 kts 312°
2026-05-05 03:22 41.26565 -72.88622 15 ft 10 kts 312°
2026-05-05 03:22 41.26647 -72.88746 13 ft 26 kts 310°
2026-05-05 03:22 41.26734 -72.88881 15 ft 18 kts 311°
2026-05-05 03:22 41.26806 -72.88982 14 ft 14 kts 327°
2026-05-05 03:23 41.26846 -72.89008 14 ft 12 kts 340°
2026-05-05 03:23 41.26888 -72.89025 17 ft 7 kts 342°
2026-05-05 03:23 41.26899 -72.89029 15 ft 2 kts 350°
2026-05-05 03:23 41.26911 -72.89023 15 ft 0 kts 28°